Location: Unspecified
(0.0000°N, 0.0000°E)
Time: 18:44:35
(UTC+00:00)

THORAD DELTA 1 DEB - Visible Passes

Search period start: 14 January 2025 00:00
Search period end: 24 January 2025 00:00
Orbit: 1317 x 1415 km, 101.1° (Epoch: 25 August)

Date Brightness Start Highest point End Pass type
(mag) Time Alt. Az. Time Alt. Az. Time Alt. Az.
15 Jan ? 04:30:13 10° ENE 04:34:03 14° ESE 04:37:51 10° SE visible
15 Jan ? 18:31:12 10° S 18:38:44 50° WSW 18:46:25 10° NNW visible
16 Jan ? 04:56:22 10° NE 05:02:46 27° ESE 05:09:03 10° SSE visible
16 Jan ? 19:01:00 10° SSW 19:07:30 29° WSW 19:14:07 10° NW visible
17 Jan ? 05:23:58 10° NNE 05:31:31 48° ESE 05:38:56 10° S visible
17 Jan ? 19:32:01 10° SW 19:36:13 15° WSW 19:40:28 10° WNW visible
19 Jan ? 04:34:01 10° ENE 04:38:23 16° ESE 04:42:43 10° SE visible
19 Jan ? 18:35:38 10° S 18:43:06 46° WSW 18:50:42 10° NW visible
20 Jan ? 05:00:31 10° NE 05:07:07 30° ESE 05:13:37 10° SSE visible
20 Jan ? 19:05:34 10° SSW 19:11:51 26° WSW 19:18:15 10° NW visible
21 Jan ? 05:28:15 10° NNE 05:35:53 52° ESE 05:43:21 10° S visible
21 Jan ? 19:36:56 10° SW 19:40:34 14° WSW 19:44:14 10° WNW visible
23 Jan ? 04:37:54 10° ENE 04:42:43 18° ESE 04:47:29 10° SE visible
23 Jan ? 18:40:06 10° S 18:47:27 43° WSW 18:54:57 10° NW visible
